Regional Weather Roundup
Issued by NWS

Home | Current Version | Previous Version | Graphics & Text | Print | Product List | Glossary Off
Versions: 1 2 3 4 5 6 7 8 9 10 11 12 13 14 15 16 17 18 19 20 21 22 23 24 25 26 27 28 29 30 31 32 33 34 35 36 37 38 39 40 41 42 43 44 45 46 47 48 49 50

000
ASUS43 KMKX 301721
RWRWI

WISCONSIN REGIONAL WEATHER ROUNDUP
NATIONAL WEATHER SERVICE MILWAUKEE/SULLIVAN WI
1200 PM CDT SUN AUG 30 2015

NOTE: "FAIR" INDICATES FEW OR NO CLOUDS BELOW 12,000 FEET WITH NO
SIGNIFICANT WEATHER AND/OR OBSTRUCTIONS TO VISIBILITY.

WIZ001-002-006>008-014>016-023>028-301800-
NORTHWEST WISCONSIN

CITY           SKY/WX    TMP DP  RH WIND       PRES   REMARKS
SUPERIOR ARPT  SUNNY     76  65  69 SW10      29.91F
ASHLAND        SUNNY     78  65  63 S14G20    29.94F HX  80
HAYWARD        SUNNY     71  61  70 S14       29.99F
SIREN          SUNNY     74  61  63 SW9       29.98S
CUMBERLAND     SUNNY     68  61  77 S12       30.01F
RICE LAKE      CLOUDY    68  61  80 S12       30.03F
CHETEK         CLOUDY   N/A N/A N/A S8        30.03F
LADYSMITH      PTSUNNY   72  64  77 S10       30.05S
EAU CLAIRE     PTSUNNY   72  63  73 S13       30.03F
MENOMONIE      CLOUDY    69  63  81 S8        30.04S
NEW RICHMOND   SUNNY     73  64  74 S10       30.01F
OSCEOLA        SUNNY     73  66  79 S9        30.02S
$$

WIZ003>005-009-010-017-018-301800-
NORTH CENTRAL WISCONSIN

CITY           SKY/WX    TMP DP  RH WIND       PRES   REMARKS
MANITOWISH WTR SUNNY     70  63  79 S12       30.02F
ARBOR VITAE    MOSUNNY   72  65  79 S10       30.03F
WOODRUFF       MOSUNNY   72  65  79 S10       30.03F
RHINELANDER    CLOUDY    68  60  75 S10       30.06F
EAGLE RIVER    SUNNY     69  58  67 SW9       30.03F
LAND O LAKES   SUNNY     72  59  63 SW8       30.03S
PHILLIPS       PTSUNNY   70  63  79 S10       30.03F
TOMAHAWK       PTSUNNY   67  63  85 CALM      30.06S
MEDFORD        CLOUDY    69  63  83 S10       30.06S
MERRILL        CLOUDY    69  63  80 SW8       30.07S
$$

WIZ029-030-035-036-043>047-301800-
CENTRAL WISCONSIN

CITY           SKY/WX    TMP DP  RH WIND       PRES   REMARKS
WAUSAU         CLOUDY    69  62  78 S7        30.05F
MOSINEE        CLOUDY    68  66  94 W6        30.08F
MARSHFIELD     MOSUNNY   72  60  66 SW12      30.07S
STEVENS POINT  CLOUDY    69  60  74 SW6       30.07F
WAUPACA        PTSUNNY   72  63  72 S6        30.08S
WAUTOMA        CLOUDY    69  64  84 SW7       30.09S
WISC RAPIDS    MOSUNNY   72  61  68 SW8       30.08F
CAMP DOUGLAS   PTSUNNY   72  72 100 SW5       30.07S
$$

WIZ011>013-019>022-031-037>040-048>050-301800-
NORTHEAST WISCONSIN

CITY           SKY/WX    TMP DP  RH WIND       PRES   REMARKS
ANTIGO         CLOUDY    68  61  78 SW9       30.08S
SHAWANO        CLOUDY    71  63  74 SW6       30.06F
OCONTO         CLOUDY    71  64  79 SW7       30.05F
STURGEON BAY   CLOUDY    70  61  73 SW9       30.07F
GREEN BAY      CLOUDY    70  63  78 SW7       30.07F HAZE
MANITOWOC      CLOUDY    67  63  87 MISG      30.08F
APPLETON       CLOUDY    70  61  73 VRB5      30.07S
CLINTONVILLE   CLOUDY    70  61  73 SW9       30.06F
OSHKOSH        PTSUNNY   69  62  78 S6        30.07F
$$

WIZ032>034-041-042-053>061-301800-
SOUTHWEST WISCONSIN

CITY           SKY/WX    TMP DP  RH WIND       PRES   REMARKS
LA CROSSE      CLOUDY    70  63  78 SE8       30.06F
SPARTA         CLOUDY    71  59  66 S8        30.08S
VIROQUA          N/A     68  63  83 SW7       30.09S
BOSCOBEL       CLOUDY    72  62  71 SW7       30.08F
PRAIRIE DU CHI CLOUDY    70  61  74 CALM      30.08S
PLATTEVILLE    CLOUDY    70  64  80 S5        30.10S
$$

WIZ056-057-062-063-064-067-068-301800-
SOUTH CENTRAL WISCONSIN

CITY           SKY/WX    TMP DP  RH WIND       PRES   REMARKS
REEDSBURG      MOSUNNY   70  63  77 S7        30.07F
BARABOO/DELLS  SUNNY     71  60  67 S8        30.08F
LONE ROCK      PTSUNNY   72  62  71 SW5       30.08F
MINERAL POINT  CLOUDY    72  63  73 S5        30.10F
MADISON        PTSUNNY   69  59  70 S6        30.09S
MIDDLETON      PTSUNNY   73  59  62 CALM      30.09F
WATERTOWN      CLOUDY    69  65  86 SW6       30.09S
MONROE         CLOUDY    68  59  73 S5        30.10S
JANESVILLE     CLOUDY    70  61  73 CALM      30.09
$$

WIZ051-052-058>065-066-070>072-301800-
SOUTHEAST WISCONSIN

CITY           SKY/WX    TMP DP  RH WIND       PRES   REMARKS
MILWAUKEE      CLOUDY    70  62  76 SE5       30.08S
WAUKESHA       CLOUDY    66  61  82 CALM      30.11R
MILWAUKEE/TIMM PTSUNNY   68  61  77 CALM      30.09S
RACINE         CLOUDY    70  62  76 NE3       30.10S
BURLINGTON     CLOUDY    68  61  77 CALM      30.09S
KENOSHA        CLOUDY    69  63  81 CALM      30.09S
FOND DU LAC    CLOUDY    69  62  78 SW5       30.08F
SHEBOYGAN      PTSUNNY   69  61  75 S6        30.08F
WEST BEND      CLOUDY    70  59  68 CALM      30.08F
JUNEAU         CLOUDY    68  60  76 S7        30.10S
$$

LSZ147-162-301800-
LAKE SUPERIOR

STATION/POSITION TIME  TEMP    WIND        PRES    WAVE
                       AIR SEA DIR/SP/G            HT/PER
                 (UTC) (F)     (DEG/KT/KT) (MB)    (FT/S)
W MID LAKE BUOY  1650   60 54  220/ 12/ 14 1012.8F   1/ 3
DEVILS ISLAND    1700   63     220/  6/  9 1012.7F
PORT WING        1640   74     190/ 12/ 15 1012.9F
SAXON HARBOR     1600   74     200/ 10/ 15 1013.5S
$$

LMZ867-665-643>646-301800-
LAKE MICHIGAN

STATION/POSITION TIME  TEMP    WIND        PRES    WAVE
                       AIR SEA DIR/SP/G            HT/PER
                 (UTC) (F)     (DEG/KT/KT) (MB)    (FT/S)
CHAMBERS ISLAND  1600   65     180/  5/  9 1017.9S
S GREEN BAY BUOY 1630   64 63  220/  8/  8 1019.5R
N MID LAKE BUOY  1650   64 65  200/ 12/ 14 1017.3F   1/ 3
NORTHPORT PIER   1600   66     150/  8/ 12 1017.6S
SISTER BAY       1619   72     270/  8/ 10   N/A
ALGOMA LAKESHORE 1614             CALM       N/A
SHEBOYGAN LAKESH 1700   55     160/  2/  2 1018.9F
PORT WASHINGTON  1600   62     130/  1/  1 1019.6S
ATWATER BUOY     1700   56 51   CALM  /  2 1020.2F
MILWAUKEE LAKESH 1600   57      40/  7/  8   N/A
S MID LAKE BUOY  1650   67 68  340/ 10/ 10 1017.9F   1
KENOSHA   LAKESH 1700   60      30/  4/  5 1018.6S
$$

TC  - TEMPERATURE IN CELSIUS
VSB - VISIBILITY IN STATUTE MILES
WCI - WIND CHILL INDEX
HX  - HEAT INDEX




USA.gov is the U.S. government's official web portal to all federal, state and local government web resources and services.